Location: Newark
(45.4422°N, 16.2769°E)
Time: 03:51:32
(UTC+00:00)

Tiros 1 despin weight - Pass Details

Date: 23 December 2019
Orbit: 594 x 642 km, 48.2° (Epoch: 27 January)

Event Time Altitude Azimuth Distance (km) Brightness Sun altitude
Rises 22:32:47 0° 223° (SW) 2,929 - -67.6°
Reaches altitude 10° 22:35:13 10° 216° (SW) 2,018 - -67.7°
Maximum altitude 22:39:34 40° 147° (SSE) 930 - -67.8°
Drops below altitude 10° 22:43:53 10° 78° (ENE) 2,004 - -67.9°
Sets 22:46:17 0° 71° (ENE) 2,905 - -67.9°
